This is the latest recevied weather packets stored in our database for station/object DG8SF-13. If no packets are shown the sender has not sent any weather packets the latest 1 day(s).
| Time | Temp. | Humidity | Pressure | Rain* | Wind** | Luminosity | Snow |
|---|---|---|---|---|---|---|---|
| 1836274795 | 10.56° C | 99% | 1022.5 hPa | 0 mm | 0 m/s | - | - |
| 1836274354 | 10.56° C | 99% | 1022.4 hPa | 0 mm | 0 m/s | - | - |
| 1836274168 | 10.56° C | 99% | 1022.5 hPa | 0 mm | 0 m/s | - | - |
| 1778019719 | 11.11° C | 87% | 1008.3 hPa | 0 mm | 0.89 m/s, 225° | - | - |
| 1778019400 | 11.11° C | 86% | 1008.3 hPa | 0 mm | 0.45 m/s, 225° | - | - |
| 1778019090 | 11.11° C | 86% | 1008.2 hPa | 0 mm | 0.89 m/s, 225° | - | - |
| 1778018775 | 11.11° C | 85% | 1008.3 hPa | 0 mm | 0.89 m/s, 202° | - | - |
| 1778018466 | 11.67° C | 85% | 1008.3 hPa | 0 mm | 0.89 m/s, 270° | - | - |
| 1778018152 | 11.67° C | 85% | 1008.3 hPa | 0 mm | 0.89 m/s, 292° | - | - |
| 1778017845 | 11.67° C | 84% | 1008.2 hPa | 0 mm | 0.89 m/s, 292° | - | - |
| 1778017528 | 11.67° C | 84% | 1008.2 hPa | 0 mm | 1.34 m/s, 248° | - | - |
| 1778017219 | 12.22° C | 83% | 1008.2 hPa | 0 mm | 1.34 m/s, 68° | - | - |
| 1778016906 | 12.22° C | 83% | 1008.2 hPa | 0 mm | 0.89 m/s, 202° | - | - |
| 1778016594 | 12.22° C | 83% | 1008.1 hPa | 0 mm | 1.34 m/s, 292° | - | - |
| 1778016280 | 12.22° C | 83% | 1008.1 hPa | 0 mm | 1.34 m/s, 225° | - | - |
| 1778015973 | 12.22° C | 82% | 1008.1 hPa | 0 mm | 0.89 m/s, 270° | - | - |
| 1778015658 | 12.22° C | 82% | 1008.1 hPa | 0 mm | 0.89 m/s, 292° | - | - |
| 1778015353 | 12.22° C | 81% | 1008 hPa | 0 mm | 0.89 m/s, 248° | - | - |
| 1778015046 | 12.22° C | 81% | 1008.1 hPa | 0 mm | 0.89 m/s, 270° | - | - |
| 1778014734 | 12.22° C | 81% | 1008.2 hPa | 0 mm | 0.89 m/s, 248° | - | - |
| 1778014422 | 12.78° C | 80% | 1008 hPa | 0 mm | 1.34 m/s, 225° | - | - |
| 1778014110 | 12.78° C | 80% | 1007.9 hPa | 0 mm | 0.89 m/s, 248° | - | - |
| 1778013797 | 12.78° C | 81% | 1008.1 hPa | 0 mm | 0.89 m/s, 248° | - | - |
| 1778013486 | 12.78° C | 81% | 1008.1 hPa | 0 mm | 0.89 m/s, 270° | - | - |
| 1778013173 | 12.78° C | 81% | 1008.2 hPa | 0 mm | 0.89 m/s, 270° | - | - |
* Rain latest hour (hover to see other rain measurements)
** Current wind speed in m/s (hover to see current wind gust speed)